Blanc-Sablon, Quebec

5:59 PM ADT on October 18, 2017 (GMT -0300)
Blanc-Sablon

Weather History for CYBX - December, 2012

Change the Weather History Date:

Thursday, December 6, 2012

  Actual Average Record
Temperature  
Mean Temperature 32 °F -  
Max Temperature 36 °F 24 °F 42 °F (2010)
Min Temperature 28 °F 10 °F -2 °F (2002)
Degree Days  
Heating Degree Days 33    
Moisture  
Dew Point 29 °F    
Average Humidity 86    
Maximum Humidity 100    
Minimum Humidity 64    
Precipitation  
Precipitation 0.00 in - - ()
Sea Level Pressure  
Sea Level Pressure 29.66 in    
Wind  
Wind Speed 9 mph ()    
Max Wind Speed 28 mph    
Max Gust Speed 37 mph    
Visibility 10.3 miles    
Events Fog , Rain    
Averages and records for this station are not official NWS values.
T = Trace of Precipitation, MM = Missing Value Source: Averaged Metar Reports

Daily Weather History Graph

Daily Weather History Graph

Search for Another Location

Airport or City:

Trip Planner

Search our weather history database for the weather conditions in past years. The results will help you decide how hot, cold, wet, or windy it might be!

Date:

Astronomy

Dec. 06, 2012 Rise Set
Actual Time 7:38 AM AST 3:40 PM AST
Civil Twilight 6:59 AM AST 4:20 PM AST
Nautical Twilight 6:16 AM AST 5:02 PM AST
Astronomical Twilight 5:36 AM AST 5:43 PM AST
Moon No Moon Rise 11:48 AM AST (12/6)
Length of Visible Light 9h 20m
Length of Day
8h 01m
Waning Gibbous, 50% of the Moon is Illuminated
Dec 6
Waning Gibbous
Dec 13
New
Dec 20
First Quarter
Dec 28
Full
Jan 4
Last Quarter

Hourly Weather History & Observations

Time (AST) Temp. Windchill Dew Point Humidity Pressure Visibility Wind Dir Wind Speed Gust Speed Precip Events Conditions
12:00 AM 37.4 °F 29.8 °F 37.4 °F 100% 29.51 in 0.1 mi WSW 11.5 mph - N/A Fog Fog
12:15 AM - - - N/A% - 0.2 mi WSW 11.5 mph - N/A Fog Light Drizzle
12:23 AM - - - N/A% - 0.5 mi WSW 9.2 mph - N/A Fog Light Drizzle
12:32 AM - - - N/A% - 0.8 mi West 10.4 mph - N/A   Light Drizzle
1:00 AM 37.4 °F 32.1 °F 37.4 °F 100% 29.51 in 1.0 mi West 6.9 mph - N/A   Light Drizzle
2:00 AM 36 °F - 36 °F 99% 29.51 in 1 mi South 2.3 mph - - Rain Light Drizzle
2:00 AM 35.6 °F - 35.6 °F 100% 29.51 in 1.0 mi Calm Calm - N/A   Light Drizzle
3:00 AM 35.6 °F - 35.6 °F 100% 29.52 in 1.0 mi Calm Calm - N/A   Light Drizzle
4:00 AM 35.6 °F - 35.6 °F 100% 29.54 in 3.0 mi Calm Calm - N/A   Light Drizzle
5:00 AM 35.6 °F 32.8 °F 35.6 °F 100% 29.56 in 2.5 mi NNW 3.5 mph - N/A   Light Drizzle
5:12 AM - - - N/A% - 4.0 mi NNW 3.5 mph - N/A Rain Light Rain
5:44 AM - - - N/A% - 10.0 mi North 5.8 mph - N/A   Mostly Cloudy
6:00 AM 33.8 °F 28.6 °F 33.8 °F 100% 29.57 in 15.0 mi North 5.8 mph - N/A   Mostly Cloudy
7:00 AM 32.0 °F - 32.0 °F 100% 29.59 in 15.0 mi NNE 2.3 mph - N/A   Mostly Cloudy
8:00 AM 34 °F - 33 °F 96% 29.61 in 15 mi Calm Calm - -   Partly Cloudy
8:00 AM 33.8 °F - 33.8 °F 100% 29.61 in 15.0 mi Calm Calm - N/A   Mostly Cloudy
9:00 AM 33.8 °F 27.0 °F 33.8 °F 100% 29.63 in 15.0 mi NNE 8.1 mph - N/A   Overcast
10:00 AM 33.8 °F 23.5 °F 30.2 °F 87% 29.65 in 15.0 mi North 16.1 mph 23.0 mph N/A   Overcast
11:00 AM 33.8 °F 23.9 °F 28.4 °F 81% 29.66 in 15.0 mi NNE 15.0 mph 27.6 mph N/A   Overcast
12:00 PM 33.8 °F 23.2 °F 26.6 °F 75% 29.67 in 15.0 mi NNE 17.3 mph 33.4 mph N/A   Overcast
1:00 PM 32.0 °F 21.2 °F 26.6 °F 80% 29.68 in 15.0 mi North 16.1 mph 25.3 mph N/A   Overcast
2:00 PM 32 °F - 25 °F 65% 29.70 in 15 mi North 23.0 mph - -   Overcast
2:00 PM 32.0 °F 19.2 °F 24.8 °F 75% 29.70 in 15.0 mi North 23.0 mph 36.8 mph N/A   Overcast
3:00 PM 30.2 °F 18.5 °F 24.8 °F 80% 29.71 in 15.0 mi North 17.3 mph 24.2 mph N/A   Overcast
4:00 PM 30.2 °F 15.7 °F 23.0 °F 75% 29.74 in 15.0 mi North 27.6 mph 33.4 mph N/A   Mostly Cloudy
5:00 PM 30.2 °F 16.2 °F 23.0 °F 75% 29.75 in 15.0 mi North 25.3 mph 33.4 mph N/A   Mostly Cloudy
6:00 PM 28.4 °F 15.4 °F 23.0 °F 80% 29.75 in 15.0 mi North 19.6 mph 27.6 mph N/A   Overcast
7:00 PM 28.4 °F 15.4 °F 23.0 °F 80% 29.77 in 15.0 mi North 19.6 mph 28.8 mph N/A   Overcast
8:00 PM 30 °F - 22 °F 64% 29.78 in 15 mi North 19.6 mph - -   Overcast
8:00 PM 30.2 °F 17.4 °F 23.0 °F 75% 29.78 in 15.0 mi North 20.7 mph 27.6 mph N/A   Overcast
9:00 PM 32.0 °F 20.1 °F 24.8 °F 75% 29.78 in 15.0 mi North 19.6 mph 27.6 mph N/A   Mostly Cloudy
10:00 PM 32.0 °F 23.0 °F 26.6 °F 80% 29.80 in 15.0 mi North 11.5 mph 18.4 mph N/A   Mostly Cloudy
11:00 PM 33.8 °F 21.3 °F 26.6 °F 75% 29.81 in 15.0 mi North 24.2 mph 33.4 mph N/A   Scattered Clouds